Weather History for Hot Springs, AR

Change the Weather History Date:

Friday, February 28, 2014

  Actual Average Record
Temperature  
Mean Temperature 40 °F -  
Max Temperature 46 °F 60 °F 81 °F (1988)
Min Temperature 33 °F 37 °F 17 °F (2002)
Degree Days  
Heating Degree Days 26    
Moisture  
Dew Point 31 °F    
Average Humidity 69    
Maximum Humidity 92    
Minimum Humidity 43    
Precipitation  
Precipitation 0.00 in - - ()
Sea Level Pressure  
Sea Level Pressure 29.95 in    
Wind  
Wind Speed 6 mph (ESE)    
Max Wind Speed 14 mph    
Max Gust Speed -    
Visibility 9 miles    
Events Rain    
Averages and records for this station are not official NWS values.
T = Trace of Precipitation, MM = Missing Value Source: NWS Daily Summary

Daily Weather History Graph

Daily Weather History Graph

Search for Another Location

Airport:

Trip Planner

Search our weather history database for the weather conditions in past years. The results will help you decide how hot, cold, wet, or windy it might be!

Date:

Astronomy

Feb. 28, 2014 Rise Set
Actual Time 6:42 AM CST 6:07 PM CST
Civil Twilight 6:17 AM CST 6:32 PM CST
Nautical Twilight 5:48 AM CST 7:02 PM CST
Astronomical Twilight 5:19 AM CST 7:31 PM CST
Moon 5:57 AM CST (2/28) 5:44 PM CST (2/28)
Length of Visible Light 12h 15m
Length of Day
11h 25m
Waning Crescent, 1% of the Moon is Illuminated
Feb 28
Waning Crescent
Mar 1
New
Mar 8
First Quarter
Mar 16
Full
Mar 23
Last Quarter

Hourly Weather History & Observations

Time (CST) Temp. Windchill Dew Point Humidity Pressure Visibility Wind Dir Wind Speed Gust Speed Precip Events Conditions
12:53 AM 36.0 °F 32.1 °F 21.0 °F 55% 29.99 in 10.0 mi East 4.6 mph - N/A   Clear
1:53 AM 36.0 °F 30.3 °F 21.0 °F 55% 29.98 in 10.0 mi East 6.9 mph - N/A   Clear
2:53 AM 39.0 °F 34.8 °F 18.0 °F 43% 29.96 in 10.0 mi ESE 5.8 mph - N/A   Clear
3:53 AM 34.0 °F 28.8 °F 19.0 °F 54% 29.97 in 10.0 mi ENE 5.8 mph - N/A   Clear
4:53 AM 36.0 °F 30.3 °F 19.0 °F 50% 29.96 in 10.0 mi East 6.9 mph - N/A   Clear
5:53 AM 34.0 °F 27.2 °F 19.0 °F 54% 29.97 in 10.0 mi East 8.1 mph - N/A   Clear
6:53 AM 33.1 °F 24.9 °F 19.9 °F 59% 29.97 in 10.0 mi East 10.4 mph - N/A   Clear
7:53 AM 37.0 °F 32.4 °F 21.0 °F 52% 29.97 in 10.0 mi ESE 5.8 mph - N/A   Clear
8:53 AM 41.0 °F 35.2 °F 21.9 °F 47% 30.00 in 10.0 mi SE 9.2 mph - N/A   Overcast
9:53 AM 44.1 °F 39.0 °F 25.0 °F 47% 29.96 in 10.0 mi SE 9.2 mph - N/A   Overcast
10:53 AM 44.1 °F 41.5 °F 28.9 °F 55% 29.98 in 10.0 mi SSE 4.6 mph - 0.00 in Rain Light Rain
11:53 AM 45.0 °F 41.8 °F 30.0 °F 56% 29.96 in 10.0 mi ESE 5.8 mph - 0.00 in Rain Light Rain
12:33 PM 44.6 °F 38.8 °F 30.2 °F 57% 29.93 in 10.0 mi SE 11.5 mph - 0.00 in   Overcast
12:53 PM 46.0 °F 43.1 °F 28.9 °F 51% 29.92 in 10.0 mi ESE 5.8 mph - 0.00 in   Overcast
1:53 PM 44.1 °F 37.4 °F 32.0 °F 63% 29.91 in 10.0 mi SSE 13.8 mph - N/A   Overcast
2:53 PM 42.1 °F 36.1 °F 37.9 °F 85% 29.89 in 6.0 mi ESE 10.4 mph - N/A   Overcast
3:53 PM 42.1 °F 37.1 °F 37.9 °F 85% 29.91 in 7.0 mi ESE 8.1 mph - N/A   Overcast
4:35 PM 42.8 °F 38.6 °F 39.2 °F 87% 29.90 in 4.0 mi ESE 6.9 mph - N/A   Overcast
4:53 PM 42.1 °F 38.4 °F 39.0 °F 89% 29.91 in 5.0 mi ESE 5.8 mph - N/A   Overcast
5:53 PM 42.1 °F 39.2 °F 39.0 °F 89% 29.93 in 5.0 mi East 4.6 mph - N/A   Overcast
6:35 PM 42.8 °F 40.1 °F 39.2 °F 87% 29.92 in 8.0 mi East 4.6 mph - N/A   Overcast
6:53 PM 42.1 °F 38.4 °F 39.9 °F 92% 29.93 in 9.0 mi ENE 5.8 mph - N/A   Overcast
7:08 PM 42.8 °F 39.3 °F 39.2 °F 87% 29.92 in 9.0 mi ENE 5.8 mph - N/A   Overcast
7:53 PM 43.0 °F 40.3 °F 39.0 °F 86% 29.95 in 10.0 mi East 4.6 mph - N/A   Overcast
8:53 PM 43.0 °F 40.3 °F 39.0 °F 86% 29.96 in 10.0 mi East 4.6 mph - N/A   Overcast
9:53 PM 43.0 °F 39.5 °F 39.0 °F 86% 29.99 in 10.0 mi East 5.8 mph - N/A   Overcast
10:53 PM 44.1 °F - 39.0 °F 82% 29.99 in 10.0 mi Calm Calm - N/A   Overcast
11:34 PM 44.6 °F - 39.2 °F 81% 30.00 in 10.0 mi Calm Calm - N/A   Overcast
11:53 PM 45.0 °F - 39.0 °F 80% 30.00 in 10.0 mi Calm Calm - N/A   Overcast